DW8397 Weather Reports


time (UTC)temp
F
wind
direction
speed
knots
gust
knots
rain 1hr
in
rain 24hr
in
rain mn
in
humidity
%
barometer
mb
20260904220024 70 340 0.0 0.0 0.00 0.01 0.01 74 1008.8
20260904214523 70 32 0.0 0.0 0.00 0.01 0.01 74 1008.8
20260904213023 70 336 1.7 7.0 0.00 0.01 0.01 73 1009.1
20260904211522 71 11 2.6 10.4 0.00 0.01 0.01 72 1009.0
20260904210024 71 296 2.6 9.6 0.00 0.01 0.01 73 1009.1
20260904204520 71 360 0.9 6.1 0.00 0.01 0.01 73 1008.9
20260904203022 71 331 2.6 7.8 0.00 0.01 0.01 73 1009.0
20260904201519 72 310 1.7 7.0 0.00 0.01 0.01 71 1009.0
20260904200020 72 21 1.7 6.1 0.00 0.01 0.01 72 1009.1
20260904194519 73 314 0.0 8.7 0.00 0.01 0.01 69 1009.2
20260904193016 74 340 1.7 10.4 0.00 0.01 0.01 66 1009.1
20260904191516 74 275 1.7 9.6 0.00 0.01 0.01 67 1009.1
20260904190016 75 301 1.7 9.6 0.00 0.01 0.01 66 1009.1
20260904184514 73 215 0.9 8.7 0.00 0.01 0.01 69 1009.3
20260904183013 73 250 0.9 6.1 0.00 0.01 0.01 66 1009.5
20260904181513 73 315 2.6 7.8 0.00 0.01 0.01 70 1009.3
20260904180013 73 209 1.7 7.8 0.00 0.01 0.01 70 1009.6
20260904174515 73 348 1.7 7.0 0.00 0.01 0.01 67 1009.8
20260904173014 74 312 3.5 11.3 0.00 0.01 0.01 65 1009.4
20260904171512 74 302 0.0 6.1 0.00 0.01 0.01 67 1009.3
20260904170010 73 360 1.7 8.7 0.00 0.01 0.01 68 1009.6
20260904164508 74 315 0.0 7.8 0.00 0.01 0.01 67 1009.4
20260904163015 73 327 0.0 10.4 0.00 0.01 0.01 67 1009.7
20260904161507 73 315 5.2 10.4 0.00 0.01 0.01 66 1009.8
20260904160008 73 306 4.3 11.3 0.00 0.01 0.01 68 1010.0
20260904154502 73 298 0.9 10.4 0.00 0.01 0.01 67 1010.1
20260904153001 73 35 0.0 9.6 0.00 0.01 0.01 69 1010.1
20260904151558 73 284 1.7 7.0 0.00 0.01 0.01 74 1010.2
20260904150056 72 329 0.0 4.3 0.00 0.01 0.01 76 1010.3
20260904144554 71 278 0.0 7.8 0.00 0.01 0.01 74 1010.2
20260904143050 71 292 0.0 6.1 0.00 0.01 0.01 79 1010.2
20260904141553 70 332 0.0 0.0 0.00 0.01 0.01 84 1010.2
20260904140042 66 302 0.0 0.0 0.00 0.01 0.01 87 1010.3
20260904134559 64 250 0.0 0.0 0.00 0.01 0.01 86 1010.3
20260904133036 63 190 0.0 0.0 0.00 0.01 0.01 86 1010.3
20260904131532 62 190 0.0 0.0 0.00 0.01 0.01 86 1010.3
20260904130030 60 190 0.0 2.6 0.00 0.01 0.01 86 1010.5
20260904124523 60 304 0.0 0.0 0.00 0.02 0.01 87 1010.6
20260904123020 59 319 0.0 2.6 0.00 0.02 0.01 87 1010.6
20260904121518 57 38 0.0 2.6 0.00 0.02 0.01 87 1010.6
20260904120020 56 20 0.0 0.0 0.00 0.02 0.01 87 1010.4
20260904114514 55 21 0.0 0.0 0.00 0.02 0.01 87 1010.5
20260904113011 55 22 0.0 0.0 0.00 0.02 0.01 87 1010.4
20260904111508 55 22 0.0 0.0 0.01 0.02 0.01 87 1010.1
20260904110007 55 22 0.0 0.0 0.01 0.02 0.01 87 1010.0
20260904104507 54 22 0.0 0.0 0.01 0.02 0.01 87 1009.8
20260904103004 53 22 0.0 0.0 0.01 0.02 0.01 88 1009.8
20260904101504 53 23 0.0 0.0 0.00 0.01 0.00 88 1009.8
20260904100004 54 23 0.0 0.0 0.00 0.01 0.00 87 1009.7
20260904094503 54 23 0.0 0.0 0.00 0.01 0.00 87 1009.4
20260904093002 54 24 0.0 0.0 0.00 0.01 0.00 88 1009.4
20260904091502 54 24 0.0 0.0 0.00 0.01 0.00 88 1009.4
20260904090107 54 24 0.0 0.0 0.00 0.01 0.00 88 1009.4
20260904084600 54 24 0.0 0.0 0.00 0.01 0.00 88 1009.3
20260904083144 54 24 0.0 0.0 0.00 0.01 0.00 88 1009.4
20260904081601 54 24 0.0 0.0 0.00 0.01 0.00 88 1009.6
20260904080054 55 24 0.0 0.0 0.00 0.01 0.00 88 1009.5
20260904074554 55 24 0.0 0.0 0.00 0.01 0.00 88 1009.4
20260904073058 55 24 0.0 0.0 0.00 0.01 0.00 88 1009.6
20260904071616 55 24 0.0 0.0 0.00 0.01 0.00 88 1009.7
20260904070112 56 24 0.0 0.0 0.00 0.01 0.00 88 1009.6
20260904064549 56 24 0.0 0.0 0.00 0.01 0.00 88 1009.8
20260904063100 56 24 0.0 0.0 0.00 0.01 0.00 88 1009.6
20260904061544 57 24 0.0 0.0 0.00 0.01 0.00 87 1009.8
20260904060042 57 24 0.0 0.0 0.00 0.01 0.00 88 1010.1
20260904054547 57 24 0.0 0.0 0.00 0.01 0.00 87 1010.2
20260904053051 58 24 0.0 0.0 0.00 0.01 0.00 88 1010.5
20260904051541 58 24 0.0 0.0 0.00 0.01 0.00 88 1010.7
20260904050039 58 24 0.0 0.0 0.00 0.01 0.00 87 1010.7
20260904044534 58 24 0.0 0.0 0.00 0.01 0.00 88 1010.8
20260904043036 59 24 0.0 0.0 0.00 0.01 0.00 88 1010.7
20260904041531 59 24 0.0 0.0 0.00 0.01 0.00 87 1010.7
20260904040029 59 24 0.0 0.0 0.00 0.01 0.00 87 1010.7
20260904034528 60 24 0.0 0.0 0.00 0.01 0.01 87 1010.7
20260904033029 60 24 0.0 0.0 0.00 0.01 0.01 87 1010.9
20260904031535 61 24 0.0 0.0 0.00 0.01 0.01 87 1010.9
20260904030027 61 24 0.0 0.0 0.00 0.01 0.01 87 1011.0
20260904024526 62 24 0.0 0.0 0.00 0.01 0.01 87 1011.2
20260904023026 62 24 0.0 0.0 0.00 0.01 0.01 87 1011.2
20260904021529 63 24 0.0 0.0 0.00 0.01 0.01 87 1011.3
20260904020026 63 24 0.0 0.0 0.00 0.01 0.01 87 1011.1
20260904014524 63 24 0.0 0.0 0.00 0.01 0.01 87 1011.2
20260904013124 64 24 0.0 0.0 0.00 0.01 0.01 87 1011.1
20260904011525 64 25 0.0 0.0 0.00 0.01 0.01 87 1011.2
20260904010024 64 25 0.0 0.0 0.00 0.01 0.01 87 1011.0
20260904004522 65 25 0.0 0.0 0.00 0.01 0.01 87 1011.0
20260904003022 65 25 0.0 0.0 0.00 0.01 0.01 87 1010.9
20260904001522 66 25 0.0 0.0 0.00 0.01 0.01 87 1010.7
20260904000023 67 25 0.0 0.0 0.00 0.01 0.01 87 1010.3
20260903234521 68 40 0.0 0.0 0.00 0.01 0.01 86 1010.2
20260903233022 69 40 0.0 0.0 0.00 0.01 0.01 85 1010.1
20260903231523 70 40 0.0 0.0 0.00 0.01 0.01 85 1010.1
20260903230033 72 13 0.0 1.7 0.00 0.01 0.01 84 1010.3
20260903224521 73 206 0.0 0.0 0.00 0.01 0.01 83 1010.3
20260903223023 73 206 0.0 0.0 0.00 0.01 0.01 81 1010.3
20260903221517 74 244 0.0 0.0 0.00 0.01 0.01 80 1010.1